Location: Barcelona
(41.3830°N, 2.1830°E)
Time: 08:58:20
(UTC+02:00)

ISS - Pass Details

Date: 10 October 2019
Orbit: 411 x 421 km, 51.6° (Epoch: 15 October)

Event Time Altitude Azimuth Distance (km) Brightness Sun altitude
Rises 19:42:43 0° 303° (WNW) 2,346 1.0 -5.3°
Reaches altitude 10° 19:44:49 10° 300° (WNW) 1,480 0.0 -5.7°
Maximum altitude 19:48:06 64° 219° (SW) 459 -3.3 -6.3°
Drops below altitude 10° 19:51:22 10° 137° (SE) 1,471 -1.4 -6.9°
Enters shadow 19:53:14 - 134° (SE) 2,233 -0.5 -7.2°
